[[{"header":{"parameterUnit":"m.s-1","parameterCategory":1,"la1":30.2991,"la2":30.254,"lo1":-89.0895,"lo2":-89.0444,"dy":0.0017,"dx":0.0017,"nx":28,"ny":28,"refTime":"2023-03-30T15:00:00:Z","depth":0,"parameterNumber":2,"parameterNumberName":"U-component_of_WINDS"},"data":[0,0,0,0,0,0,0,0,0,0,0,0,0,0,0,0,0,0,0,0,0,0,0,0,0,0,0,0,0,0,0,0,0,0,0,0,0,0,0,0,0,0,0,0,0,0,0,0,0,0,0,0,0,0,0,0,0,0,-5.5043,-5.5043,0,-5.4983,-5.4983,-5.4982,-5.4804,-5.48,-5.4796,-5.4793,-5.4736,-5.4738,-5.474,0,0,0,0,0,0,0,0,0,0,0,0,0,-5.501,-5.5011,-5.5043,-5.5043,-5.5042,-5.4984,-5.4983,-5.4982,-5.4805,-5.48,-5.4795,-5.4791,-5.4735,-5.4738,-5.474,0,0,0,0,0,0,0,0,0,0,0,0,0,-5.4995,-5.5012,-5.5043,-5.4946,-5.4937,-5.4984,-5.4983,-5.4982,-5.4806,-5.48,-5.4794,-5.4789,-5.4734,-5.4737,-5.474,-5.4877,0,0,-5.475,-5.4752,0,0,0,0,0,0,0,0,-5.4996,-5.4996,-5.4961,-5.4953,-5.4943,-5.4895,-5.495,-5.4947,-5.4807,-5.4856,-5.4793,-5.4786,-5.4794,-5.4792,-5.4793,-5.4875,-5.4872,-5.475,-5.4752,-5.4754,-5.4755,0,0,0,0,0,0,0,-5.4997,-5.4998,-5.502,-5.4961,-5.495,-5.4908,-5.4899,-5.4948,-5.4859,-5.4851,-5.4838,-5.4833,-5.4788,-5.4791,-5.4791,-5.4871,-5.475,-5.4753,-5.4755,-5.4756,-5.5064,-5.507,0,0,0,0,0,0,-5.5011,-5.5,-5.5021,-5.5018,-5.4955,-5.4913,-5.4903,-5.4917,-5.4858,-5.4843,-5.4838,-5.4825,-5.4788,-5.4787,-5.4788,-5.4945,-5.4754,-5.4757,-5.4758,-5.5058,-5.5065,-5.5072,0,0,0,0,0,0,-5.5011,-5.5015,-5.5024,-5.5005,-5.5003,-5.492,-5.4936,-5.4918,-5.4921,-5.4848,-5.4831,-5.4858,-5.4784,-5.4784,-5.4857,-5.494,-5.4758,-5.4761,-5.505,-5.506,-5.5069,-5.526,0,0,0,0,0,0,-5.5011,-5.5016,-5.5066,-5.5008,-5.5005,-5.5092,-5.4941,-5.4921,-5.4927,-5.4909,-5.4862,-5.4848,-5.4779,-5.4853,-5.486,-5.4942,-5.4763,-5.5042,-5.5055,-5.5066,-5.5246,-5.5275,-5.53,0,0,0,0,0,-5.5011,-5.5123,-5.5069,-5.5073,-5.5065,-5.5097,-5.5096,-5.5013,-5.4934,-5.4984,-5.4938,-5.485,-5.4931,-5.4862,-5.4868,-5.4952,-5.5037,-5.5051,-5.5065,-5.5234,-5.5269,-5.5299,0,0,0,0,0,0,-5.5193,-5.5113,-5.5053,-5.5149,-5.5132,-5.5067,-5.5127,-5.5053,-5.5058,-5.5041,-5.4939,-5.493,-5.5018,-5.4992,-5.4917,-5.5083,-5.4969,-5.4985,-5.5096,-5.5129,-5.5155,-5.5159,-5.4766,0,0,0,0,0,-5.5245,-5.5276,-5.5205,-5.5297,-5.5291,-5.5212,-5.5223,-5.516,-5.5138,-5.513,-5.5088,-5.5072,-5.5093,-5.511,-5.5125,-5.5242,-5.523,-5.5303,-5.533,-5.5353,-5.5368,-5.5429,-5.5461,-5.5118,-5.5118,-5.5118,0,0,-5.5351,-5.5312,-5.5338,-5.5333,-5.5311,-5.5348,-5.5206,-5.5251,-5.5277,-5.5137,-5.5203,-5.5173,-5.5148,-5.5243,-5.5283,-5.5225,-5.546,-5.5371,-5.5389,-5.5392,-5.5447,-5.5479,-5.5508,-5.5128,-5.5126,-5.5125,0,0,-5.5564,-5.5537,-5.561,-5.5593,-5.5562,-5.5509,-5.5528,-5.5475,-5.5449,-5.5514,-5.541,-5.5442,-5.5481,-5.5467,-5.5466,-5.5677,-5.5597,-5.5686,-5.5826,-5.5886,-5.5913,-5.5937,-5.6013,-5.6041,-5.5701,-5.5701,-5.5702,0,-5.57,-5.5749,-5.5658,-5.571,-5.5711,-5.5586,-5.5662,-5.5649,-5.5627,-5.5632,-5.5566,-5.5614,-5.5588,-5.5679,-5.5731,-5.5734,-5.5753,-5.5689,-5.5917,-5.5939,-5.596,-5.6031,-5.606,-5.5712,-5.5711,-5.571,-5.5709,0,-5.5919,-5.5956,-5.6019,-5.6,-5.6009,-5.6072,-5.5993,-5.6013,-5.5952,-5.5906,-5.5975,-5.594,-5.5947,-5.5965,-5.5905,-5.6049,-5.6013,-5.5935,-5.5818,-5.6005,-5.607,-5.6097,-5.5728,-5.5724,-5.5721,-5.5718,0,0,-5.6242,-5.6173,-5.6198,-5.6188,-5.6148,-5.6174,-5.6234,-5.624,-5.626,-5.625,-5.6298,-5.6335,-5.6262,-5.6261,-5.6199,-5.6252,-5.6423,-5.6166,-5.6164,-5.6215,-5.6581,-5.664,-5.6673,-5.637,-5.6375,-5.6379,-5.6583,0,-5.6443,-5.6538,-5.6459,-5.6569,-5.6603,-5.6486,-5.6538,-5.652,-5.648,-5.6504,-5.646,-5.6488,-5.6389,-5.6388,-5.6436,-5.6392,-5.6495,-5.6377,-5.6415,-5.6417,-5.6424,-5.6707,-5.6769,-5.6963,-5.6608,-5.6612,-5.6615,0,-5.6689,-5.669,-5.6803,-5.6756,-5.6767,-5.6815,-5.6815,-5.6839,-5.6818,-5.6785,-5.6785,-5.671,-5.6766,-5.6654,-5.6732,-5.6653,-5.6665,-5.6646,-5.6652,-5.6651,-5.6527,-5.6714,-5.7022,-5.7051,-5.6654,-5.6651,-5.6648,0,-5.6914,-5.6943,-5.7015,-5.701,-5.6958,-5.6994,-5.6974,-5.6946,-5.6956,-5.6957,-5.6963,-5.6972,-5.6977,-5.6986,-5.6916,-5.684,-5.7003,-5.6885,-5.6979,-5.6981,-5.7017,-5.7015,-5.7331,-5.7027,-5.7026,-5.7026,-5.7025,0,-5.7145,-5.722,-5.7115,-5.7159,-5.724,-5.715,-5.7233,-5.7201,-5.7178,-5.7215,-5.7116,-5.7154,-5.7059,-5.7088,-5.7034,-5.7107,-5.711,-5.7086,-5.7071,-5.7094,-5.7098,-5.71,-5.7084,-5.7033,-5.7032,-5.703,-5.7029,0,-5.7409,-5.7341,-5.7412,-5.7357,-5.7345,-5.7407,-5.7361,-5.7401,-5.7355,-5.7404,-5.7411,-5.734,-5.7369,-5.73,-5.7319,-5.7283,-5.7388,-5.7351,-5.7395,-5.7383,-5.7481,-5.7473,-5.7809,-5.7849,-5.752,-5.7523,-5.7526,0,-5.756,-5.7614,-5.7566,-5.7583,-5.7569,-5.7598,-5.7607,-5.7523,-5.7537,-5.7518,-5.7561,-5.7581,-5.7592,-5.7645,-5.7596,-5.7611,-5.7573,-5.769,-5.7575,-5.7598,-5.7575,-5.7572,-5.7578,-5.7714,-5.7718,-5.7721,-5.7724,0,-5.7837,-5.7801,-5.7818,-5.7824,-5.7838,-5.7839,-5.7833,-5.7854,-5.7764,-5.7785,-5.7813,-5.7822,-5.7842,-5.7864,-5.7868,-5.7849,-5.7773,-5.7761,-5.7783,-5.7807,-5.783,-5.7819,-5.7459,-5.7753,-5.775,-5.7748,-5.7746,-5.7745,-5.8048,-5.8091,-5.8064,-5.8087,-5.8074,-5.8071,-5.8106,-5.8066,-5.8087,-5.8095,-5.8045,-5.8085,-5.8064,-5.8061,-5.8051,-5.8082,-5.8029,-5.8061,-5.8069,-5.8079,-5.8095,-5.7827,-5.8082,-5.8081,-5.808,-5.808,-5.8079,0,-5.8319,-5.8296,-5.8318,-5.8313,-5.8332,-5.8258,-5.8248,-5.8269,-5.8304,-5.8291,-5.8305,-5.8338,-5.836,-5.8315,-5.8329,-5.8363,-5.8329,-5.837,-5.8366,-5.8363,-5.8141,-5.812,-5.8398,-5.8398,-5.8398,-5.8397,-5.8397,-5.8397,-5.8462,-5.8531,-5.8494,-5.8557,-5.8534,-5.8571,-5.8572,-5.857,-5.8559,-5.86,-5.8618,-5.8587,-5.8562,-5.8575,-5.8592,-5.8578,-5.8589,-5.8642,-5.8617,-5.841,-5.8379,-5.8349,-5.8328,-5.8645,-5.8646,-5.8836,-5.8837,-5.8839]},{"header":{"parameterUnit":"m.s-1","parameterCategory":1,"la1":30.2991,"la2":30.254,"lo1":-89.0895,"lo2":-89.0444,"dy":0.0017,"dx":0.0017,"nx":28,"ny":28,"refTime":"2023-03-30T15:00:00:Z","depth":0,"parameterNumber":3,"parameterNumberName":"V-component_of_WINDS"},"data":[0,0,0,0,0,0,0,0,0,0,0,0,0,0,0,0,0,0,0,0,0,0,0,0,0,0,0,0,0,0,0,0,0,0,0,0,0,0,0,0,0,0,0,0,0,0,0,0,0,0,0,0,0,0,0,0,0,0,1.2115,1.2115,0,1.211,1.211,1.211,1.2161,1.2163,1.2164,1.2166,1.2157,1.2155,1.2154,0,0,0,0,0,0,0,0,0,0,0,0,0,1.2166,1.2165,1.2115,1.2115,1.2115,1.211,1.211,1.211,1.2161,1.2163,1.2165,1.2166,1.2157,1.2155,1.2153,0,0,0,0,0,0,0,0,0,0,0,0,0,1.2151,1.2165,1.2115,1.214,1.2142,1.211,1.211,1.211,1.2161,1.2163,1.2165,1.2167,1.2158,1.2156,1.2153,1.2095,0,0,1.2146,1.2145,0,0,0,0,0,0,0,0,1.2151,1.2149,1.2136,1.2138,1.214,1.2139,1.2125,1.2105,1.216,1.2154,1.2166,1.2168,1.2149,1.2147,1.2141,1.2095,1.2095,1.2146,1.2144,1.2143,1.2143,0,0,0,0,0,0,0,1.2152,1.2149,1.2113,1.2136,1.2138,1.2151,1.2151,1.2121,1.2139,1.2154,1.2158,1.2157,1.215,1.2144,1.2142,1.2095,1.2146,1.2144,1.2142,1.2141,1.2002,1.1999,0,0,0,0,0,0,1.2151,1.215,1.2113,1.2113,1.2152,1.2148,1.2148,1.2137,1.2139,1.2142,1.2155,1.2159,1.2147,1.2144,1.2141,1.2074,1.2143,1.2141,1.214,1.2004,1.2001,1.1999,0,0,0,0,0,0,1.2151,1.2147,1.2113,1.2132,1.2129,1.2145,1.2132,1.2136,1.2129,1.214,1.2143,1.2145,1.2148,1.2145,1.2107,1.2075,1.214,1.2138,1.2007,1.2003,1.2,1.1939,0,0,0,0,0,0,1.2153,1.2147,1.2125,1.2131,1.2128,1.2079,1.213,1.2134,1.2125,1.2131,1.2132,1.2134,1.215,1.211,1.2105,1.2073,1.2136,1.2009,1.2005,1.2001,1.1944,1.1934,1.1926,0,0,0,0,0,1.2154,1.2107,1.2124,1.2119,1.2101,1.2077,1.2075,1.2095,1.2123,1.2101,1.2108,1.2134,1.208,1.2106,1.21,1.2067,1.2012,1.2006,1.2001,1.1948,1.1936,1.1926,0,0,0,0,0,0,1.2095,1.2109,1.2127,1.2081,1.2078,1.2086,1.2059,1.2081,1.2069,1.2075,1.2099,1.2099,1.2057,1.2059,1.2088,1.2012,1.205,1.2044,1.2012,1.2001,1.1991,1.1991,1.2134,0,0,0,0,0,1.2077,1.2058,1.207,1.2028,1.2026,1.2043,1.2033,1.2049,1.2046,1.2044,1.2049,1.2044,1.2026,1.2014,1.1998,1.1945,1.1946,1.192,1.191,1.1903,1.1896,1.1869,1.1857,1.1982,1.1982,1.1982,0,0,1.2039,1.2044,1.203,1.2016,1.2016,1.1994,1.2041,1.2016,1.1999,1.204,1.2005,1.2009,1.2005,1.196,1.194,1.1959,1.1863,1.1896,1.189,1.1888,1.1862,1.1851,1.184,1.1978,1.1979,1.1979,0,0,1.1958,1.196,1.1926,1.1925,1.1924,1.1936,1.1928,1.1933,1.1938,1.1903,1.1934,1.1915,1.1883,1.188,1.1873,1.1794,1.1816,1.1788,1.1739,1.1712,1.1702,1.1693,1.1664,1.1654,1.1782,1.1781,1.1781,0,1.191,1.188,1.1905,1.1878,1.1871,1.191,1.1875,1.1872,1.1865,1.1859,1.1882,1.1844,1.1844,1.1799,1.178,1.1774,1.1765,1.1787,1.1702,1.1693,1.1685,1.1658,1.1647,1.1778,1.1778,1.1779,1.1779,0,1.1821,1.1799,1.1772,1.1766,1.1757,1.1725,1.1745,1.1732,1.175,1.1759,1.1724,1.1726,1.1712,1.1703,1.1719,1.166,1.1672,1.1698,1.1736,1.167,1.1644,1.1634,1.1773,1.1774,1.1775,1.1776,0,0,1.1701,1.1712,1.1701,1.1699,1.1702,1.1685,1.1657,1.1644,1.1632,1.1627,1.1603,1.1577,1.1601,1.1594,1.161,1.1587,1.1524,1.1616,1.1616,1.1598,1.1458,1.1438,1.1426,1.154,1.1538,1.1536,1.1459,0,1.1622,1.1574,1.1597,1.1546,1.1526,1.1563,1.1538,1.1537,1.1545,1.1529,1.1538,1.1519,1.1553,1.1549,1.1528,1.1536,1.1496,1.1542,1.1516,1.1515,1.1515,1.1413,1.1391,1.1318,1.1449,1.1447,1.1446,0,1.1523,1.1515,1.1463,1.1471,1.1464,1.1441,1.1431,1.1416,1.1415,1.1423,1.1417,1.1439,1.1411,1.1451,1.1412,1.1443,1.1434,1.1436,1.1434,1.1431,1.1475,1.1406,1.1295,1.1283,1.1431,1.1432,1.1433,0,1.144,1.1417,1.1383,1.138,1.1389,1.1372,1.1374,1.1376,1.1367,1.1359,1.1354,1.1342,1.1335,1.1325,1.1343,1.1371,1.1302,1.1343,1.1306,1.1306,1.1289,1.1289,1.1173,1.1285,1.1285,1.1285,1.1285,0,1.1349,1.1315,1.1346,1.1325,1.1288,1.1315,1.1278,1.1284,1.1286,1.1266,1.1297,1.1278,1.1304,1.1286,1.1301,1.1266,1.1263,1.1268,1.1272,1.1264,1.1263,1.1258,1.1263,1.1282,1.1283,1.1283,1.1284,0,1.1249,1.1269,1.1234,1.1246,1.1248,1.122,1.123,1.121,1.1222,1.1197,1.1192,1.121,1.1192,1.121,1.1192,1.1201,1.1155,1.1167,1.1155,1.1158,1.112,1.1123,1.0996,1.098,1.1102,1.1101,1.11,0,1.1189,1.1165,1.1174,1.1164,1.1165,1.1148,1.114,1.1166,1.1156,1.1155,1.1135,1.112,1.1109,1.1078,1.1089,1.1075,1.1087,1.1043,1.1085,1.1078,1.1085,1.1086,1.1084,1.1034,1.1032,1.1031,1.103,0,1.1081,1.1092,1.108,1.1072,1.1062,1.1056,1.1052,1.1042,1.1068,1.1056,1.1038,1.103,1.1013,1.0998,1.0988,1.099,1.1014,1.1017,1.1008,1.1,1.0994,1.0996,1.1131,1.102,1.1021,1.1021,1.1022,1.1022,1.0999,1.0979,1.0983,1.0969,1.097,1.0966,1.0949,1.0959,1.0946,1.0935,1.0951,1.0929,1.093,1.092,1.0919,1.0902,1.092,1.0907,1.0903,1.0899,1.0893,1.0998,1.09,1.09,1.0901,1.0901,1.0901,0,1.0892,1.0897,1.0884,1.0879,1.0868,1.0894,1.0891,1.088,1.0861,1.0861,1.085,1.083,1.0816,1.0826,1.0813,1.0798,1.0808,1.0793,1.0794,1.0794,1.0878,1.0887,1.0785,1.0785,1.0785,1.0785,1.0785,1.0785,1.0835,1.0803,1.0815,1.0783,1.0788,1.0768,1.0765,1.0762,1.0762,1.0739,1.0727,1.0735,1.0739,1.0727,1.0715,1.0718,1.0712,1.0692,1.0699,1.0777,1.0788,1.0799,1.0808,1.0691,1.0691,1.0617,1.0617,1.0616]}]]